This is the latest recevied weather packets stored in our database for station/object K4KMJ. If no packets are shown the sender has not sent any weather packets the latest 10 day(s).
| Time | Temp. | Humidity | Pressure | Rain* | Wind** | Luminosity | Snow |
|---|---|---|---|---|---|---|---|
| 1777468837 | 25.56° C | 99% | 1019.9 hPa | 0 mm | - | 401 W/m² | - |
| 1777468533 | 25° C | 99% | 1020.1 hPa | 0 mm | - | 382 W/m² | - |
| 1777468230 | 24.44° C | 99% | 1020.2 hPa | 0 mm | - | 358 W/m² | - |
| 1777467927 | 23.89° C | 99% | 1020.3 hPa | 0 mm | - | 328 W/m² | - |
| 1777467623 | 23.33° C | 99% | 1020.3 hPa | 0 mm | - | 308 W/m² | - |
| 1777467318 | 22.78° C | 99% | 1020.2 hPa | 0 mm | - | 295 W/m² | - |
| 1777467014 | 21.67° C | 99% | 1019.9 hPa | 0 mm | - | 254 W/m² | - |
| 1777466712 | 21.11° C | 99% | 1020 hPa | 0 mm | - | 257 W/m² | - |
| 1777466409 | 20.56° C | 99% | 1019.6 hPa | 0 mm | - | 187 W/m² | - |
| 1777466105 | 20° C | 99% | 1019.9 hPa | 0 mm | - | 109 W/m² | - |
| 1777465802 | 20° C | 99% | 1019.8 hPa | 0 mm | - | 95 W/m² | - |
| 1777465497 | 20° C | 99% | 1019.6 hPa | 0 mm | - | 81 W/m² | - |
| 1777465196 | 20° C | 99% | 1019.6 hPa | 0 mm | - | 73 W/m² | - |
| 1777464892 | 20° C | 99% | 1019.5 hPa | 0 mm | - | 73 W/m² | - |
| 1777464587 | 19.44° C | 99% | 1019.3 hPa | 0 mm | - | 73 W/m² | - |
| 1777464284 | 19.44° C | 99% | 1019.3 hPa | 0 mm | - | 72 W/m² | - |
| 1777463979 | 20° C | 99% | 1019.3 hPa | 0 mm | - | 76 W/m² | - |
| 1777463674 | 19.44° C | 99% | 1019.2 hPa | 0 mm | - | 108 W/m² | - |
| 1777463374 | 18.89° C | 99% | 1019.2 hPa | 0 mm | - | 123 W/m² | - |
| 1777463066 | 18.33° C | 99% | 1019.2 hPa | 0 mm | - | 121 W/m² | - |
| 1777462761 | 18.33° C | 99% | 1019.1 hPa | 0 mm | - | 109 W/m² | - |
| 1777462457 | 17.22° C | 99% | 1018.9 hPa | 0 mm | - | 85 W/m² | - |
| 1777462154 | 16.67° C | 99% | 1019 hPa | 0 mm | - | 67 W/m² | - |
| 1777461850 | 16.67° C | 99% | 1018.7 hPa | 0 mm | - | 58 W/m² | - |
| 1777461546 | 16.11° C | 99% | 1018.7 hPa | 0 mm | - | 40 W/m² | - |
* Rain latest hour (hover to see other rain measurements)
** Current wind speed in m/s (hover to see current wind gust speed)